Flag for U.S.A. Weather past 2 weeks in Pembroke Pines, Florida, U.S.A.

79 °F


Feels Like: 82 °F
Forecast: 72 / 85 °F
Wind: 3 mph from Southwest

Location: North Perry Airport

Current Time: Oct 7, 2015 at 12:38:16 AM

Latest Report: Oct 6, 2015 at 11:53 PM

Visibility: 10 mi

Pressure: 29.94 "Hg

Humidity: 74%

Dew point: 70 °F

Location of Pembroke PinesLocation

Historic Weather in Pembroke Pines — Graph


Pembroke Pines temperature yesterday

Maximum temperature yesterday: 87 °F (at 1:53 PM)
Minimum temperature yesterday: 73 °F (at 1:53 AM)
Average temperature yesterday: 80 °F

Past Weeks' High & Low Weather Summary

High92 °F (Oct 1, 2:53 PM)97% (Sep 22, 10:53 PM)29.96 "Hg (Sep 22, 10:53 PM)
Low71 °F (Oct 4, 5:53 AM)39% (Oct 3, 1:53 PM)29.52 "Hg (Oct 2, 3:53 PM)
Average81 °F76%29.82 "Hg
* Reported Sep 21 10:53 PM — Oct 6 10:53 PM, Pembroke Pines, Weather by CustomWeather, © 2015

Note: Actual official high and low records may vary slightly from our data, if they occured in-between our weather recording intervals... More about our weather records


Pembroke Pines weather history for previous 24 hours

Time TempWeatherWind HumidityBarometerVisibility
10:53 PM
Tue, Oct 6
79 °FMostly cloudy.3 mph74%29.94 "Hg10 mi
9:53 PM80 °FMostly cloudy.No wind74%29.93 "Hg10 mi
8:53 PM80 °FMostly cloudy.7 mph69%29.91 "Hg10 mi
7:53 PM80 °FPartly sunny.3 mph62%29.89 "Hg10 mi
6:53 PM83 °FOvercast.8 mph57%29.89 "Hg10 mi
5:53 PM85 °FOvercast.6 mph55%29.87 "Hg10 mi
4:53 PM85 °FOvercast.5 mph55%29.87 "Hg10 mi
3:53 PM85 °FOvercast.9 mph57%29.87 "Hg10 mi
2:53 PM85 °FOvercast.8 mph55%29.88 "Hg10 mi
1:53 PM87 °FBroken clouds.12 mph50%29.89 "Hg10 mi
12:53 PM86 °FPassing clouds.10 mph57%29.91 "Hg10 mi
11:53 AM84 °FPartly sunny.10 mph61%29.93 "Hg10 mi
10:53 AM83 °FMostly cloudy.12 mph68%29.93 "Hg10 mi
9:53 AM82 °FSunny.9 mph70%29.93 "Hg10 mi
8:53 AM78 °FPassing clouds.3 mph79%29.91 "Hg10 mi
7:53 AM74 °FPassing clouds.No wind94%29.91 "Hg10 mi
6:53 AM74 °FPassing clouds.No wind91%29.90 "Hg10 mi
5:53 AM73 °FPassing clouds.5 mph90%29.87 "Hg10 mi
4:53 AM73 °FClear.No wind90%29.85 "Hg10 mi
3:53 AM73 °FClear.5 mph90%29.85 "Hg10 mi
2:53 AM73 °FClear.3 mph90%29.86 "Hg10 mi
1:53 AM73 °FClear.5 mph90%29.86 "Hg10 mi
12:53 AM74 °FClear.No wind85%29.88 "Hg10 mi
Weather by CustomWeather, © 2015

See weather overviewHow to use our weather pages